SAS1857 ESSA-BIKF

Flight info

Callsign SAS1857
Flight time 2h 53m
Altitude 36000
Route KOGAV DCT SUVAR DCT ISVIG/M077F380 DCT ING DCT NASBU
Aircraft A320/M-SDE3FGHIJ1RWXYZ/ALB1

Departure

Time 2026-05-08 07:54
Airport Stockholm-Arlanda Airport (ESSA)

Arrival

Time 2026-05-08 10:47
Airport Keflavik International Airport (BIKF)
Time Latitude Longitude Altitude Speed Heading
2026-05-08 07:14 59.65333 17.92900 112 ft 0 kts 100°
2026-05-08 07:47 59.65333 17.92898 112 ft 1 kts 100°
2026-05-08 07:47 59.65337 17.92851 112 ft 4 kts 100°
2026-05-08 07:48 59.65342 17.92810 111 ft 4 kts 89°
2026-05-08 07:48 59.65332 17.92768 110 ft 3 kts 39°
2026-05-08 07:48 59.65313 17.92738 112 ft 4 kts 39°
2026-05-08 07:48 59.65302 17.92719 112 ft 0 kts 39°
2026-05-08 07:50 59.65305 17.92724 112 ft 2 kts 39°
2026-05-08 07:51 59.65341 17.92725 111 ft 8 kts 338°
2026-05-08 07:51 59.65393 17.92669 112 ft 10 kts 331°
2026-05-08 07:51 59.65469 17.92588 108 ft 15 kts 332°
2026-05-08 07:51 59.65583 17.92505 104 ft 16 kts 345°
2026-05-08 07:52 59.65698 17.92443 104 ft 18 kts 343°
2026-05-08 07:52 59.65820 17.92441 106 ft 17 kts
2026-05-08 07:52 59.65911 17.92370 108 ft 15 kts 290°
2026-05-08 07:52 59.65928 17.92181 114 ft 11 kts 280°
2026-05-08 07:53 59.65903 17.92106 113 ft 0 kts 191°
2026-05-08 07:53 59.65781 17.92065 111 ft 52 kts 190°
2026-05-08 07:53 59.65202 17.91856 106 ft 114 kts 191°
2026-05-08 07:53 59.64271 17.91516 212 ft 148 kts 188°
2026-05-08 07:54 59.63271 17.91140 838 ft 146 kts 188°
2026-05-08 07:54 59.62268 17.90782 1521 ft 147 kts 187°
2026-05-08 07:54 59.61336 17.89929 2033 ft 163 kts 224°
2026-05-08 07:54 59.60646 17.87957 2308 ft 187 kts 236°
2026-05-08 07:55 59.60089 17.85461 2575 ft 214 kts 261°
2026-05-08 07:55 59.60412 17.82453 2923 ft 242 kts 299°
2026-05-08 07:55 59.61354 17.79512 3547 ft 261 kts 302°
2026-05-08 07:55 59.62378 17.76499 4462 ft 265 kts 303°
2026-05-08 07:56 59.63405 17.73514 5433 ft 267 kts 303°
2026-05-08 07:56 59.64456 17.70449 6371 ft 270 kts 304°
2026-05-08 07:56 59.65516 17.67336 7254 ft 273 kts 304°
2026-05-08 07:56 59.66577 17.64196 8144 ft 275 kts 303°
2026-05-08 07:57 59.67652 17.60993 8771 ft 289 kts 303°
2026-05-08 07:57 59.68790 17.57591 9369 ft 300 kts 303°
2026-05-08 07:57 59.69953 17.54108 10199 ft 304 kts 303°
2026-05-08 07:57 59.71128 17.50582 10824 ft 312 kts 302°
2026-05-08 07:58 59.72329 17.46963 11366 ft 321 kts 302°
2026-05-08 07:58 59.73565 17.43233 12071 ft 325 kts 302°
2026-05-08 07:58 59.74818 17.39455 12799 ft 329 kts 302°
2026-05-08 07:58 59.76081 17.35642 13532 ft 332 kts 302°
2026-05-08 07:59 59.77357 17.31791 14259 ft 335 kts 302°
2026-05-08 07:59 59.78642 17.27909 14882 ft 338 kts 302°
2026-05-08 07:59 59.79925 17.24032 15517 ft 341 kts 302°
2026-05-08 07:59 59.81229 17.20076 16164 ft 343 kts 302°
2026-05-08 08:00 59.82545 17.16073 16799 ft 346 kts 302°
2026-05-08 08:00 59.83867 17.12040 17437 ft 349 kts 302°
2026-05-08 08:00 59.85198 17.07970 18085 ft 352 kts 303°
2026-05-08 08:00 59.86543 17.03851 18707 ft 355 kts 302°
2026-05-08 08:01 59.87876 16.99758 19275 ft 358 kts 302°
2026-05-08 08:01 59.89234 16.95578 19844 ft 361 kts 302°
2026-05-08 08:01 59.90600 16.91366 20418 ft 364 kts 302°
2026-05-08 08:01 59.91986 16.87100 21004 ft 367 kts 302°
2026-05-08 08:02 59.93378 16.82809 21556 ft 370 kts 302°
2026-05-08 08:02 59.94780 16.78472 22106 ft 372 kts 302°
2026-05-08 08:02 59.96190 16.74095 22656 ft 375 kts 301°
2026-05-08 08:02 59.97586 16.69750 23199 ft 378 kts 301°
2026-05-08 08:03 59.99019 16.65299 23733 ft 381 kts 301°
2026-05-08 08:03 60.00459 16.60821 24202 ft 384 kts 301°
2026-05-08 08:03 60.01909 16.56305 24650 ft 386 kts 301°
2026-05-08 08:03 60.03360 16.51768 25087 ft 388 kts 301°
2026-05-08 08:04 60.04817 16.47193 25527 ft 390 kts 301°
2026-05-08 08:04 60.06276 16.42600 25965 ft 392 kts 301°
2026-05-08 08:04 60.07746 16.37969 26392 ft 394 kts 300°
2026-05-08 08:04 60.09220 16.33322 26807 ft 395 kts 300°
2026-05-08 08:05 60.10677 16.28712 27207 ft 397 kts 300°
2026-05-08 08:05 60.12157 16.24014 27609 ft 399 kts 300°
2026-05-08 08:05 60.13648 16.19284 28008 ft 401 kts 300°
2026-05-08 08:05 60.15146 16.14528 28402 ft 403 kts 300°
2026-05-08 08:06 60.16649 16.09755 28795 ft 405 kts 300°
2026-05-08 08:06 60.18160 16.04938 29175 ft 407 kts 300°
2026-05-08 08:06 60.19654 16.00158 29546 ft 409 kts 300°
2026-05-08 08:06 60.21168 15.95297 29910 ft 411 kts 300°
2026-05-08 08:07 60.22689 15.90401 30274 ft 413 kts 300°
2026-05-08 08:07 60.24222 15.85464 30593 ft 415 kts 299°
2026-05-08 08:07 60.25756 15.80507 30890 ft 417 kts 299°
2026-05-08 08:07 60.27294 15.75531 31251 ft 418 kts 299°
2026-05-08 08:08 60.28828 15.70572 31683 ft 416 kts 299°
2026-05-08 08:08 60.30357 15.65622 32117 ft 415 kts 299°
2026-05-08 08:08 60.31881 15.60681 32551 ft 414 kts 299°
2026-05-08 08:08 60.33380 15.55799 32977 ft 413 kts 299°
2026-05-08 08:09 60.34893 15.50851 33412 ft 412 kts 298°
2026-05-08 08:09 60.36395 15.45924 33845 ft 412 kts 298°
2026-05-08 08:09 60.37894 15.40998 34294 ft 411 kts 298°
2026-05-08 08:09 60.39392 15.36069 34666 ft 410 kts 298°
2026-05-08 08:10 60.40880 15.31157 34988 ft 410 kts 298°
2026-05-08 08:10 60.42369 15.26228 35296 ft 410 kts 298°
2026-05-08 08:10 60.43836 15.21364 35591 ft 410 kts 298°
2026-05-08 08:10 60.45326 15.16422 35889 ft 410 kts 298°
2026-05-08 08:11 60.46816 15.11477 36170 ft 411 kts 298°
2026-05-08 08:11 60.48310 15.06511 36292 ft 413 kts 298°
2026-05-08 08:11 60.49810 15.01506 36304 ft 414 kts 298°
2026-05-08 08:12 60.52783 14.91536 36305 ft 414 kts 298°
2026-05-08 08:12 60.55770 14.81491 36303 ft 414 kts 298°
2026-05-08 08:13 60.58748 14.71438 36299 ft 414 kts 297°
2026-05-08 08:13 60.61697 14.61425 36301 ft 414 kts 297°
2026-05-08 08:14 60.64665 14.51309 36302 ft 415 kts 297°
2026-05-08 08:14 60.67605 14.41239 36302 ft 415 kts 297°
2026-05-08 08:15 60.70558 14.31100 36304 ft 415 kts 297°
2026-05-08 08:15 60.73482 14.20976 36307 ft 415 kts 297°
2026-05-08 08:16 60.76409 14.10783 36309 ft 415 kts 297°
2026-05-08 08:16 60.79342 14.00582 36304 ft 415 kts 297°
2026-05-08 08:17 60.82254 13.90419 36307 ft 415 kts 297°
2026-05-08 08:17 60.84680 13.81895 36302 ft 415 kts 296°
2026-05-08 08:18 60.87578 13.71639 36297 ft 415 kts 296°
2026-05-08 08:18 60.90479 13.61356 36298 ft 415 kts 296°
2026-05-08 08:19 60.93349 13.51129 36295 ft 415 kts 296°
2026-05-08 08:19 60.96238 13.40801 36297 ft 415 kts 296°
2026-05-08 08:20 60.99117 13.30473 36277 ft 415 kts 296°
2026-05-08 08:20 61.01964 13.20189 36260 ft 415 kts 296°
2026-05-08 08:21 61.04821 13.09814 36255 ft 415 kts 296°
2026-05-08 08:21 61.07672 12.99424 36245 ft 415 kts 296°
2026-05-08 08:22 61.10520 12.89002 36243 ft 415 kts 296°
2026-05-08 08:22 61.13353 12.78567 36245 ft 415 kts 295°
2026-05-08 08:23 61.15950 12.68001 36245 ft 412 kts 289°
2026-05-08 08:23 61.18168 12.56994 36250 ft 412 kts 289°
2026-05-08 08:24 61.20366 12.46073 36255 ft 413 kts 289°
2026-05-08 08:24 61.22563 12.35063 36260 ft 413 kts 289°
2026-05-08 08:25 61.24755 12.24016 36266 ft 413 kts 289°
2026-05-08 08:25 61.26941 12.12966 36268 ft 413 kts 289°
2026-05-08 08:26 61.29103 12.01970 36267 ft 413 kts 288°
2026-05-08 08:26 61.31263 11.90878 36261 ft 413 kts 288°
2026-05-08 08:27 61.33400 11.79855 36261 ft 413 kts 288°
2026-05-08 08:27 61.35544 11.68757 36257 ft 413 kts 288°
2026-05-08 08:28 61.37689 11.57643 36251 ft 412 kts 288°
2026-05-08 08:28 61.39818 11.46521 36252 ft 412 kts 288°
2026-05-08 08:29 61.41925 11.35426 36243 ft 413 kts 288°
2026-05-08 08:29 61.44030 11.24256 36240 ft 412 kts 288°
2026-05-08 08:30 61.46129 11.13073 36239 ft 412 kts 288°
2026-05-08 08:30 61.49249 10.96320 36235 ft 412 kts 287°
2026-05-08 08:31 61.51330 10.85087 36228 ft 413 kts 287°
2026-05-08 08:31 61.53391 10.73919 36229 ft 413 kts 287°
2026-05-08 08:32 61.55450 10.62686 36223 ft 412 kts 287°
2026-05-08 08:32 61.57489 10.51469 36224 ft 413 kts 287°
2026-05-08 08:33 61.59529 10.40178 36225 ft 413 kts 287°
2026-05-08 08:33 61.61559 10.28873 36221 ft 413 kts 287°
2026-05-08 08:34 61.63575 10.17609 36226 ft 413 kts 286°
2026-05-08 08:34 61.65594 10.06265 36218 ft 413 kts 286°
2026-05-08 08:35 61.67605 9.94892 36219 ft 413 kts 286°
2026-05-08 08:35 61.69601 9.83528 36218 ft 413 kts 286°
2026-05-08 08:36 61.71573 9.72213 36216 ft 414 kts 285°
2026-05-08 08:36 61.73546 9.60819 36208 ft 413 kts 285°
2026-05-08 08:37 61.75519 9.49387 36206 ft 413 kts 285°
2026-05-08 08:37 61.77461 9.38036 36201 ft 413 kts 285°
2026-05-08 08:38 61.79411 9.26582 36199 ft 413 kts 285°
2026-05-08 08:38 61.81352 9.15135 36197 ft 413 kts 285°
2026-05-08 08:39 61.83276 9.03723 36193 ft 413 kts 285°
2026-05-08 08:39 61.85197 8.92253 36188 ft 413 kts 284°
2026-05-08 08:40 61.87099 8.80758 36189 ft 413 kts 284°
2026-05-08 08:40 61.88985 8.69329 36189 ft 413 kts 284°
2026-05-08 08:41 61.90879 8.57825 36187 ft 413 kts 284°
2026-05-08 08:41 61.92765 8.46291 36183 ft 413 kts 284°
2026-05-08 08:42 61.94622 8.34819 36183 ft 413 kts 284°
2026-05-08 08:42 61.96479 8.23244 36178 ft 413 kts 284°
2026-05-08 08:43 61.98330 8.11666 36178 ft 413 kts 284°
2026-05-08 08:43 62.00165 8.00140 36174 ft 413 kts 283°
2026-05-08 08:44 62.02000 7.88524 36166 ft 413 kts 283°
2026-05-08 08:44 62.03818 7.76975 36173 ft 413 kts 283°
2026-05-08 08:45 62.05630 7.65344 36164 ft 413 kts 283°
2026-05-08 08:45 62.07435 7.53681 36166 ft 413 kts 283°
2026-05-08 08:46 62.09231 7.42010 36161 ft 414 kts 283°
2026-05-08 08:46 62.11016 7.30332 36153 ft 413 kts 283°
2026-05-08 08:47 62.12778 7.18710 36153 ft 414 kts 282°
2026-05-08 08:47 62.14541 7.06964 36146 ft 414 kts 282°
2026-05-08 08:48 62.16301 6.95222 36146 ft 413 kts 282°
2026-05-08 08:48 62.18052 6.83469 36143 ft 414 kts 282°
2026-05-08 08:49 62.19782 6.71768 36143 ft 414 kts 282°
2026-05-08 08:49 62.21515 6.59973 36137 ft 414 kts 282°
2026-05-08 08:50 62.23228 6.48178 36132 ft 414 kts 282°
2026-05-08 08:50 62.24935 6.36364 36129 ft 414 kts 281°
2026-05-08 08:51 62.26624 6.24613 36133 ft 414 kts 281°
2026-05-08 08:51 62.28312 6.12756 36131 ft 414 kts 281°
2026-05-08 08:52 62.29991 6.00932 36344 ft 417 kts 281°
2026-05-08 08:52 62.30835 5.94937 36579 ft 419 kts 281°
2026-05-08 08:52 62.31676 5.88938 36840 ft 419 kts 281°
2026-05-08 08:53 62.32518 5.82917 37091 ft 420 kts 282°
2026-05-08 08:53 62.33359 5.76883 37329 ft 421 kts 282°
2026-05-08 08:53 62.34191 5.70907 37557 ft 422 kts 282°
2026-05-08 08:53 62.35033 5.64834 37795 ft 423 kts 282°
2026-05-08 08:54 62.35871 5.58746 38016 ft 424 kts 282°
2026-05-08 08:54 62.36708 5.52635 38107 ft 425 kts 282°
2026-05-08 08:54 62.38376 5.40394 38110 ft 426 kts 282°
2026-05-08 08:55 62.40034 5.28161 38108 ft 426 kts 282°
2026-05-08 08:55 62.41686 5.15924 38110 ft 426 kts 282°
2026-05-08 08:56 62.43328 5.03609 38110 ft 426 kts 282°
2026-05-08 08:56 62.44963 4.91265 38115 ft 427 kts 282°
2026-05-08 08:57 62.46576 4.78958 38118 ft 427 kts 282°
2026-05-08 08:57 62.48190 4.66560 38116 ft 428 kts 281°
2026-05-08 08:58 62.49796 4.54126 38112 ft 428 kts 281°
2026-05-08 08:58 62.51384 4.41748 38108 ft 429 kts 281°
2026-05-08 08:59 62.52976 4.29277 38100 ft 429 kts 281°
2026-05-08 08:59 62.54553 4.16777 38097 ft 430 kts 281°
2026-05-08 09:00 62.56113 4.04329 38096 ft 430 kts 281°
2026-05-08 09:00 62.57676 3.91801 38095 ft 430 kts 281°
2026-05-08 09:01 62.59226 3.79234 38082 ft 430 kts 281°
2026-05-08 09:01 62.60747 3.66729 38084 ft 430 kts 280°
2026-05-08 09:02 62.62020 3.56194 38072 ft 430 kts 281°
2026-05-08 09:02 62.63526 3.43665 38077 ft 430 kts 280°
2026-05-08 09:03 62.65016 3.31140 38073 ft 430 kts 280°
2026-05-08 09:03 62.66515 3.18497 38052 ft 430 kts 280°
2026-05-08 09:04 62.67992 3.05936 38048 ft 429 kts 280°
2026-05-08 09:04 62.69457 2.93314 38040 ft 429 kts 280°
2026-05-08 09:05 62.70908 2.80743 38032 ft 429 kts 279°
2026-05-08 09:05 62.72354 2.68076 38025 ft 429 kts 279°
2026-05-08 09:06 62.73787 2.55491 38019 ft 429 kts 279°
2026-05-08 09:06 62.75203 2.42826 38009 ft 429 kts 279°
2026-05-08 09:07 62.76603 2.30215 38004 ft 429 kts 279°
2026-05-08 09:07 62.77995 2.17549 37998 ft 429 kts 279°
2026-05-08 09:08 62.79378 2.04908 37989 ft 429 kts 279°
2026-05-08 09:08 62.80750 1.92205 37979 ft 428 kts 278°
2026-05-08 09:09 62.82111 1.79506 37969 ft 428 kts 278°
2026-05-08 09:09 62.83457 1.66834 37964 ft 429 kts 278°
2026-05-08 09:10 62.84800 1.54092 37958 ft 429 kts 278°
2026-05-08 09:10 62.86137 1.41320 37949 ft 429 kts 278°
2026-05-08 09:11 62.87453 1.28524 37938 ft 430 kts 278°
2026-05-08 09:11 62.88757 1.15705 37928 ft 430 kts 278°
2026-05-08 09:12 62.90047 1.02962 37922 ft 431 kts 278°
2026-05-08 09:12 62.91340 0.90106 37907 ft 431 kts 278°
2026-05-08 09:13 62.92618 0.77231 37898 ft 432 kts 278°
2026-05-08 09:13 62.93882 0.64317 37900 ft 432 kts 278°
2026-05-08 09:14 62.95144 0.51364 37897 ft 433 kts 278°
2026-05-08 09:14 62.96398 0.38392 37894 ft 434 kts 278°
2026-05-08 09:15 62.97632 0.25465 37892 ft 434 kts 277°
2026-05-08 09:15 62.98859 0.12442 37885 ft 434 kts 277°
2026-05-08 09:16 63.00082 -0.00612 37877 ft 435 kts 278°
2026-05-08 09:16 63.01422 -0.13535 37869 ft 436 kts 279°
2026-05-08 09:17 63.02863 -0.26546 37865 ft 436 kts 280°
2026-05-08 09:17 63.04287 -0.39556 37859 ft 437 kts 279°
2026-05-08 09:18 63.05668 -0.52621 37852 ft 437 kts 279°
2026-05-08 09:18 63.07029 -0.65709 37846 ft 437 kts 279°
2026-05-08 09:19 63.08386 -0.78740 37839 ft 438 kts 279°
2026-05-08 09:19 63.09738 -0.91864 37832 ft 438 kts 279°
2026-05-08 09:20 63.11048 -1.04759 37830 ft 438 kts 279°
2026-05-08 09:20 63.12374 -1.17916 37827 ft 439 kts 279°
2026-05-08 09:21 63.13703 -1.31125 37822 ft 439 kts 279°
2026-05-08 09:23 63.18196 -1.77313 37797 ft 439 kts 279°
2026-05-08 09:23 63.19459 -1.90587 37790 ft 439 kts 278°
2026-05-08 09:24 63.20703 -2.03786 37791 ft 440 kts 278°
2026-05-08 09:24 63.21945 -2.17108 37781 ft 440 kts 278°
2026-05-08 09:25 63.23177 -2.30452 37774 ft 441 kts 278°
2026-05-08 09:25 63.24396 -2.43799 37764 ft 441 kts 278°
2026-05-08 09:26 63.25596 -2.57160 37759 ft 441 kts 278°
2026-05-08 09:26 63.26778 -2.70456 37762 ft 441 kts 278°
2026-05-08 09:27 63.27963 -2.83843 37751 ft 441 kts 278°
2026-05-08 09:27 63.29131 -2.97242 37744 ft 441 kts 278°
2026-05-08 09:28 63.30289 -3.10683 37732 ft 442 kts 278°
2026-05-08 09:28 63.31430 -3.24145 37732 ft 442 kts 278°
2026-05-08 09:29 63.32557 -3.37540 37729 ft 442 kts 278°
2026-05-08 09:29 63.33675 -3.51025 37719 ft 442 kts 278°
2026-05-08 09:30 63.34782 -3.64512 37719 ft 442 kts 277°
2026-05-08 09:30 63.35877 -3.78000 37711 ft 442 kts 277°
2026-05-08 09:31 63.36952 -3.91412 37705 ft 442 kts 277°
2026-05-08 09:31 63.38021 -4.04955 37703 ft 442 kts 277°
2026-05-08 09:32 63.39075 -4.18433 37701 ft 443 kts 277°
2026-05-08 09:32 63.40126 -4.31994 37690 ft 443 kts 277°
2026-05-08 09:33 63.41156 -4.45563 37689 ft 443 kts 277°
2026-05-08 09:33 63.42174 -4.59192 37684 ft 444 kts 277°
2026-05-08 09:34 63.43186 -4.72844 37682 ft 445 kts 277°
2026-05-08 09:34 63.44186 -4.86490 37680 ft 445 kts 277°
2026-05-08 09:35 63.45161 -5.00086 37678 ft 445 kts 277°
2026-05-08 09:35 63.46140 -5.13802 37676 ft 446 kts 277°
2026-05-08 09:36 63.47099 -5.27523 37672 ft 446 kts 277°
2026-05-08 09:36 63.48047 -5.41271 37670 ft 446 kts 277°
2026-05-08 09:37 63.48978 -5.54942 37669 ft 447 kts 277°
2026-05-08 09:37 63.49749 -5.66411 37666 ft 447 kts 277°
2026-05-08 09:38 63.50657 -5.80192 37666 ft 447 kts 277°
2026-05-08 09:38 63.51560 -5.94014 37661 ft 447 kts 276°
2026-05-08 09:39 63.52447 -6.07754 37658 ft 447 kts 277°
2026-05-08 09:39 63.53327 -6.21580 37657 ft 448 kts 276°
2026-05-08 09:40 63.54181 -6.35428 37659 ft 448 kts 276°
2026-05-08 09:40 63.55024 -6.49302 37656 ft 448 kts 276°
2026-05-08 09:41 63.55855 -6.63189 37662 ft 449 kts 276°
2026-05-08 09:41 63.56675 -6.77005 37657 ft 449 kts 276°
2026-05-08 09:42 63.57484 -6.90924 37666 ft 449 kts 276°
2026-05-08 09:42 63.58282 -7.04833 37662 ft 449 kts 276°
2026-05-08 09:43 63.59070 -7.18765 37667 ft 449 kts 276°
2026-05-08 09:43 63.59841 -7.32703 37672 ft 449 kts 276°
2026-05-08 09:44 63.60590 -7.46558 37674 ft 448 kts 276°
2026-05-08 09:44 63.61330 -7.60489 37678 ft 448 kts 276°
2026-05-08 09:45 63.62061 -7.74438 37685 ft 448 kts 276°
2026-05-08 09:45 63.62765 -7.88364 37688 ft 448 kts 276°
2026-05-08 09:46 63.63461 -8.02305 37690 ft 448 kts 276°
2026-05-08 09:46 63.64151 -8.16156 37698 ft 448 kts 276°
2026-05-08 09:47 63.64830 -8.30120 37702 ft 448 kts 276°
2026-05-08 09:47 63.65488 -8.44091 37713 ft 448 kts 275°
2026-05-08 09:48 63.66127 -8.57988 37721 ft 448 kts 275°
2026-05-08 09:48 63.66765 -8.71966 37735 ft 448 kts 275°
2026-05-08 09:49 63.67385 -8.85901 37747 ft 448 kts 275°
2026-05-08 09:49 63.67990 -8.99918 37759 ft 448 kts 275°
2026-05-08 09:50 63.68570 -9.13920 37767 ft 448 kts 275°
2026-05-08 09:50 63.69147 -9.27925 37779 ft 448 kts 275°
2026-05-08 09:51 63.69718 -9.41835 37790 ft 448 kts 275°
2026-05-08 09:51 63.70269 -9.55838 37807 ft 448 kts 275°
2026-05-08 09:52 63.70806 -9.69851 37813 ft 448 kts 275°
2026-05-08 09:52 63.71328 -9.83864 37828 ft 448 kts 275°
2026-05-08 09:53 63.71842 -9.97901 37838 ft 448 kts 275°
2026-05-08 09:53 63.72340 -10.11871 37852 ft 448 kts 275°
2026-05-08 09:54 63.72828 -10.25910 37867 ft 448 kts 274°
2026-05-08 09:54 63.73294 -10.39970 37881 ft 448 kts 274°
2026-05-08 09:55 63.73742 -10.54033 37893 ft 449 kts 274°
2026-05-08 09:55 63.74179 -10.68107 37908 ft 449 kts 274°
2026-05-08 09:56 63.74608 -10.82101 37916 ft 448 kts 274°
2026-05-08 09:56 63.75031 -10.96191 37929 ft 449 kts 274°
2026-05-08 09:57 63.75629 -11.17325 37947 ft 449 kts 274°
2026-05-08 09:57 63.76006 -11.31422 37960 ft 449 kts 274°
2026-05-08 09:58 63.76374 -11.45442 37975 ft 449 kts 274°
2026-05-08 09:58 63.76727 -11.59563 37987 ft 449 kts 274°
2026-05-08 09:59 63.77070 -11.73610 37999 ft 449 kts 274°
2026-05-08 09:59 63.77405 -11.87714 38012 ft 449 kts 274°
2026-05-08 10:00 63.77719 -12.01865 38021 ft 449 kts 274°
2026-05-08 10:00 63.78009 -12.16001 38027 ft 449 kts 274°
2026-05-08 10:01 63.78281 -12.30033 38034 ft 448 kts 274°
2026-05-08 10:01 63.78561 -12.44153 38029 ft 447 kts 274°
2026-05-08 10:02 63.78822 -12.58156 38041 ft 447 kts 274°
2026-05-08 10:02 63.79061 -12.72248 38065 ft 448 kts 274°
2026-05-08 10:03 63.79287 -12.86346 38072 ft 448 kts 274°
2026-05-08 10:03 63.79509 -13.00459 38086 ft 448 kts 274°
2026-05-08 10:04 63.79709 -13.14484 38092 ft 448 kts 274°
2026-05-08 10:04 63.79895 -13.28583 38108 ft 448 kts 274°
2026-05-08 10:05 63.80074 -13.42684 38111 ft 447 kts 274°
2026-05-08 10:05 63.80232 -13.56713 38121 ft 447 kts 274°
2026-05-08 10:06 63.80381 -13.70844 38126 ft 447 kts 273°
2026-05-08 10:06 63.80514 -13.84917 38138 ft 447 kts 273°
2026-05-08 10:07 63.80627 -13.98923 38131 ft 448 kts 273°
2026-05-08 10:07 63.80735 -14.13044 38130 ft 448 kts 273°
2026-05-08 10:08 63.80821 -14.27184 38139 ft 449 kts 272°
2026-05-08 10:08 63.80895 -14.41349 38151 ft 449 kts 273°
2026-05-08 10:09 63.80965 -14.55520 38158 ft 449 kts 272°
2026-05-08 10:09 63.81021 -14.69678 38171 ft 449 kts 273°
2026-05-08 10:10 63.81053 -14.83828 38172 ft 449 kts 272°
2026-05-08 10:10 63.81073 -14.97895 38180 ft 449 kts 272°
2026-05-08 10:11 63.81089 -15.12006 38184 ft 448 kts 272°
2026-05-08 10:11 63.81091 -15.26148 38187 ft 448 kts 272°
2026-05-08 10:12 63.81073 -15.37890 38191 ft 448 kts 272°
2026-05-08 10:12 63.81037 -15.52033 38197 ft 448 kts 272°
2026-05-08 10:13 63.80995 -15.66200 38190 ft 449 kts 271°
2026-05-08 10:13 63.80940 -15.80249 38192 ft 449 kts 271°
2026-05-08 10:14 63.80868 -15.94388 38185 ft 449 kts 271°
2026-05-08 10:14 63.80778 -16.08535 38191 ft 449 kts 271°
2026-05-08 10:15 63.80679 -16.22722 38189 ft 450 kts 271°
2026-05-08 10:15 63.80567 -16.36909 38197 ft 451 kts 271°
2026-05-08 10:16 63.80432 -16.51134 38198 ft 451 kts 270°
2026-05-08 10:16 63.80389 -16.65255 38201 ft 449 kts 277°
2026-05-08 10:17 63.81107 -16.79337 38196 ft 449 kts 278°
2026-05-08 10:17 63.81825 -16.93428 38195 ft 450 kts 278°
2026-05-08 10:18 63.82512 -17.07463 38190 ft 450 kts 278°
2026-05-08 10:18 63.83190 -17.21593 38196 ft 451 kts 278°
2026-05-08 10:19 63.83855 -17.35658 38195 ft 451 kts 278°
2026-05-08 10:20 63.84830 -17.56891 38201 ft 451 kts 278°
2026-05-08 10:20 63.85462 -17.71085 38201 ft 452 kts 277°
2026-05-08 10:21 63.86078 -17.85195 38205 ft 452 kts 277°
2026-05-08 10:21 63.86682 -17.99396 38211 ft 452 kts 277°
2026-05-08 10:21 63.86980 -18.06507 37967 ft 452 kts 278°
2026-05-08 10:22 63.87275 -18.13603 37704 ft 451 kts 278°
2026-05-08 10:22 63.87567 -18.20698 37452 ft 451 kts 278°
2026-05-08 10:22 63.87853 -18.27781 37220 ft 450 kts 278°
2026-05-08 10:22 63.88133 -18.34861 36958 ft 450 kts 278°
2026-05-08 10:23 63.88410 -18.41940 36710 ft 449 kts 278°
2026-05-08 10:23 63.88687 -18.49001 36468 ft 449 kts 278°
2026-05-08 10:23 63.88964 -18.56069 36234 ft 449 kts 278°
2026-05-08 10:23 63.89232 -18.63147 35888 ft 449 kts 278°
2026-05-08 10:24 63.89493 -18.70156 35073 ft 453 kts 278°
2026-05-08 10:24 63.89758 -18.77309 34259 ft 456 kts 279°
2026-05-08 10:24 63.90023 -18.84518 33214 ft 459 kts 279°
2026-05-08 10:24 63.90284 -18.91753 32462 ft 455 kts 279°
2026-05-08 10:25 63.90532 -18.98835 31973 ft 446 kts 279°
2026-05-08 10:25 63.90773 -19.05831 31391 ft 441 kts 280°
2026-05-08 10:25 63.91009 -19.12758 30830 ft 436 kts 280°
2026-05-08 10:25 63.91239 -19.19588 30245 ft 431 kts 280°
2026-05-08 10:26 63.91465 -19.26349 29632 ft 426 kts 280°
2026-05-08 10:26 63.91684 -19.33000 29086 ft 419 kts 280°
2026-05-08 10:26 63.91897 -19.39552 28545 ft 413 kts 280°
2026-05-08 10:26 63.92105 -19.46014 28001 ft 407 kts 280°
2026-05-08 10:27 63.92306 -19.52311 27479 ft 402 kts 280°
2026-05-08 10:27 63.92504 -19.58602 26952 ft 397 kts 280°
2026-05-08 10:27 63.92696 -19.64831 26448 ft 392 kts 279°
2026-05-08 10:27 63.92885 -19.70989 25945 ft 389 kts 279°
2026-05-08 10:28 63.93066 -19.77092 25467 ft 385 kts 279°
2026-05-08 10:28 63.93244 -19.83146 24992 ft 382 kts 279°
2026-05-08 10:28 63.93420 -19.89166 24536 ft 380 kts 279°
2026-05-08 10:28 63.93590 -19.95143 24081 ft 378 kts 279°
2026-05-08 10:29 63.93758 -20.01090 23608 ft 375 kts 279°
2026-05-08 10:29 63.93924 -20.06990 23162 ft 372 kts 279°
2026-05-08 10:29 63.94087 -20.12831 22728 ft 368 kts 279°
2026-05-08 10:29 63.94248 -20.18619 22288 ft 364 kts 278°
2026-05-08 10:30 63.94400 -20.24334 21839 ft 361 kts 278°
2026-05-08 10:30 63.94546 -20.30007 21398 ft 357 kts 278°
2026-05-08 10:30 63.94572 -20.35649 20923 ft 358 kts 270°
2026-05-08 10:30 63.94215 -20.41263 20418 ft 359 kts 265°
2026-05-08 10:31 63.93809 -20.46857 19907 ft 357 kts 265°
2026-05-08 10:31 63.93410 -20.52348 19400 ft 356 kts 265°
2026-05-08 10:31 63.93000 -20.57967 18869 ft 355 kts 265°
2026-05-08 10:31 63.92599 -20.63430 18318 ft 355 kts 264°
2026-05-08 10:32 63.92190 -20.68949 17770 ft 352 kts 264°
2026-05-08 10:32 63.91780 -20.74413 17250 ft 349 kts 264°
2026-05-08 10:32 63.91372 -20.79838 16732 ft 346 kts 264°
2026-05-08 10:32 63.90969 -20.85216 16212 ft 344 kts 264°
2026-05-08 10:33 63.90567 -20.90564 15694 ft 342 kts 264°
2026-05-08 10:33 63.90166 -20.95877 15181 ft 340 kts 263°
2026-05-08 10:33 63.89763 -21.01154 14671 ft 338 kts 263°
2026-05-08 10:33 63.89355 -21.06416 14164 ft 337 kts 263°
2026-05-08 10:34 63.88947 -21.11662 13611 ft 336 kts 263°
2026-05-08 10:34 63.88546 -21.16868 13116 ft 332 kts 263°
2026-05-08 10:34 63.88154 -21.21970 12897 ft 326 kts 263°
2026-05-08 10:34 63.87761 -21.27031 12639 ft 324 kts 263°
2026-05-08 10:35 63.87368 -21.32070 12374 ft 323 kts 263°
2026-05-08 10:35 63.86980 -21.37004 12108 ft 320 kts 263°
2026-05-08 10:35 63.86589 -21.41876 11960 ft 308 kts 263°
2026-05-08 10:35 63.86211 -21.46565 11822 ft 297 kts 263°
2026-05-08 10:36 63.85842 -21.51137 11522 ft 293 kts 263°
2026-05-08 10:36 63.85479 -21.55662 11175 ft 291 kts 263°
2026-05-08 10:36 63.85116 -21.60169 10851 ft 289 kts 263°
2026-05-08 10:36 63.84754 -21.64648 10490 ft 288 kts 263°
2026-05-08 10:37 63.84394 -21.69077 10293 ft 283 kts 263°
2026-05-08 10:37 63.84035 -21.73520 9860 ft 286 kts 263°
2026-05-08 10:37 63.83677 -21.77932 9506 ft 283 kts 263°
2026-05-08 10:37 63.83319 -21.82299 9187 ft 280 kts 263°
2026-05-08 10:38 63.82963 -21.86620 8898 ft 278 kts 263°
2026-05-08 10:38 63.82606 -21.90918 8596 ft 276 kts 263°
2026-05-08 10:38 63.82250 -21.95185 8302 ft 275 kts 263°
2026-05-08 10:38 63.81896 -21.99384 8042 ft 272 kts 262°
2026-05-08 10:39 63.81546 -22.03518 7909 ft 263 kts 263°
2026-05-08 10:39 63.81207 -22.07531 7698 ft 258 kts 263°
2026-05-08 10:39 63.80773 -22.11468 7398 ft 258 kts 254°
2026-05-08 10:39 63.80195 -22.15294 6884 ft 256 kts 255°
2026-05-08 10:40 63.79621 -22.19098 6309 ft 255 kts 254°
2026-05-08 10:40 63.79052 -22.22863 5862 ft 250 kts 254°
2026-05-08 10:40 63.78488 -22.26581 5535 ft 250 kts 254°
2026-05-08 10:40 63.77925 -22.30301 5208 ft 249 kts 254°
2026-05-08 10:41 63.77369 -22.34006 4884 ft 248 kts 256°
2026-05-08 10:41 63.77110 -22.37847 4558 ft 245 kts 274°
2026-05-08 10:41 63.77347 -22.41595 4238 ft 239 kts 291°
2026-05-08 10:41 63.77913 -22.45108 3923 ft 236 kts 294°
2026-05-08 10:42 63.78482 -22.48596 3619 ft 235 kts 294°
2026-05-08 10:42 63.79044 -22.52064 3321 ft 233 kts 294°
2026-05-08 10:42 63.79595 -22.55475 3110 ft 227 kts 294°
2026-05-08 10:42 63.80289 -22.58542 3006 ft 210 kts 317°
2026-05-08 10:43 63.81421 -22.60242 2952 ft 192 kts 346°
2026-05-08 10:43 63.82720 -22.60566 2921 ft 185 kts
2026-05-08 10:43 63.83974 -22.60560 2809 ft 176 kts
2026-05-08 10:43 63.85193 -22.60556 2565 ft 170 kts
2026-05-08 10:44 63.86320 -22.60555 2338 ft 158 kts
2026-05-08 10:44 63.87382 -22.60554 2120 ft 148 kts
2026-05-08 10:44 63.88401 -22.60552 1918 ft 145 kts
2026-05-08 10:44 63.89404 -22.60551 1705 ft 144 kts
2026-05-08 10:45 63.90396 -22.60550 1509 ft 137 kts
2026-05-08 10:45 63.91308 -22.60551 1325 ft 127 kts
2026-05-08 10:45 63.92185 -22.60549 1118 ft 126 kts
2026-05-08 10:45 63.93061 -22.60542 899 ft 125 kts
2026-05-08 10:46 63.93940 -22.60535 700 ft 127 kts
2026-05-08 10:46 63.94825 -22.60543 497 ft 127 kts
2026-05-08 10:46 63.95716 -22.60545 320 ft 129 kts
2026-05-08 10:46 63.96609 -22.60543 173 ft 129 kts
2026-05-08 10:47 63.97375 -22.60538 172 ft 86 kts
2026-05-08 10:47 63.97714 -22.60528 172 ft 62 kts 359°
2026-05-08 10:47 63.98026 -22.60560 171 ft 22 kts 327°
2026-05-08 10:47 63.98165 -22.60682 170 ft 23 kts 335°
2026-05-08 10:48 63.98307 -22.60858 166 ft 19 kts 330°
2026-05-08 10:48 63.98426 -22.60940 166 ft 19 kts 359°
2026-05-08 10:48 63.98571 -22.60932 165 ft 23 kts
2026-05-08 10:48 63.98747 -22.60940 162 ft 27 kts
2026-05-08 10:49 63.98906 -22.60938 166 ft 18 kts
2026-05-08 10:49 63.99038 -22.60938 166 ft 20 kts 359°
2026-05-08 10:49 63.99155 -22.60960 161 ft 15 kts 330°
2026-05-08 10:49 63.99172 -22.61233 155 ft 22 kts 271°
2026-05-08 10:50 63.99173 -22.61579 147 ft 22 kts 270°
2026-05-08 10:50 63.99173 -22.61924 140 ft 22 kts 269°
2026-05-08 10:50 63.99173 -22.62284 140 ft 18 kts 270°
2026-05-08 10:50 63.99173 -22.62571 140 ft 16 kts 270°
2026-05-08 10:51 63.99234 -22.62667 140 ft 13 kts 24°
2026-05-08 10:51 63.99270 -22.62578 140 ft 4 kts 49°
2026-05-08 10:51 63.99275 -22.62565 140 ft 0 kts 49°